Home   Weather   Mohave Valley   Past weeks
Flag for USA

Past Weather in Mohave Valley, Arizona, USA — Yesterday and Last 2 Weeks

Now
88 °F

Clear.


Feels Like: 84 °F
Forecast: 111 / 80 °F
Wind: 7 mph from Southeast

Location: Needles Airport

Current Time: Jul 17, 2019 at 5:44:17 am

Latest Report: Jul 17, 2019 at 4:56 am


Visibility: 10 mi

Pressure: 29.62 "Hg

Humidity: 11%

Dew Point: 27 °F

Location of Mohave ValleyLocation

Past Weather in Mohave Valley — Graph

°F

Mohave Valley Temperature Yesterday

Maximum temperature yesterday: 115 °F (at 12:56 pm)
Minimum temperature yesterday: 88 °F (at 4:56 am)
Average temperature yesterday: 103 °F

High & Low Weather Summary for the Past Weeks

 TemperatureHumidityPressure
High116 °F (Jul 13, 4:06 pm)26% (Jul 14, 2:56 am)29.87 "Hg (Jul 14, 2:56 am)
Low79 °F (Jul 8, 5:56 am)4% (Jul 16, 4:56 pm)29.51 "Hg (Jul 16, 5:56 pm)
Average99 °F11%29.68 "Hg
* Reported Jul 2 3:56 am — Jul 17 3:56 am, Mohave Valley. Weather by CustomWeather, © 2019

Note: Actual official high and low records may vary slightly from our data, if they occured in-between our weather recording intervals... More about our weather records

Advertising

Mohave Valley Weather History for the Previous 24 Hours

Scroll right to see more
 ConditionsComfort  
Time TempWeatherWind HumidityBarometerVisibility
3:56 am
Wed, Jul 17
89 °FClear.10 mph10%29.60 "Hg10 mi
2:56 am91 °FClear.8 mph10%29.59 "Hg10 mi
1:56 am95 °FClear.6 mph9%29.60 "Hg10 mi
12:56 am96 °FClear.10 mph8%29.59 "Hg10 mi
11:56 pm
Tue, Jul 16
100 °FClear.16 mph7%29.56 "Hg10 mi
10:56 pm101 °FClear.15 mph7%29.56 "Hg10 mi
9:56 pm102 °FClear.13 mph6%29.56 "Hg10 mi
8:56 pm104 °FClear.10 mph6%29.55 "Hg10 mi
7:56 pm108 °FClear.16 mph5%29.53 "Hg10 mi
6:56 pm111 °FSunny.14 mph4%29.52 "Hg10 mi
5:56 pm113 °FSunny.20 mph4%29.51 "Hg10 mi
4:56 pm115 °FSunny.13 mph4%29.52 "Hg10 mi
3:56 pm115 °FSunny.16 mph5%29.53 "Hg10 mi
2:56 pm115 °FSunny.16 mph7%29.56 "Hg10 mi
1:56 pm114 °FSunny.18 mph6%29.57 "Hg10 mi
12:56 pm115 °FSunny.16 mph5%29.59 "Hg10 mi
11:56 am111 °FSunny.9 mph5%29.62 "Hg10 mi
10:56 am107 °FSunny.7 mph7%29.63 "Hg10 mi
9:56 am102 °FSunny.3 mph8%29.64 "Hg10 mi
8:56 am99 °FSunny.5 mph8%29.64 "Hg10 mi
7:56 am95 °FSunny.No wind9%29.64 "Hg10 mi
6:56 am93 °FSunny.6 mph8%29.62 "Hg10 mi
5:56 am89 °FSunny.3 mph9%29.62 "Hg10 mi
Weather by CustomWeather, © 2019

See weather overview